COSMOS 1087

导读

COSMOS 1087(宇宙1087)是苏联(CIS)于1979年3月15日08:00发射的卫星,隶属于苏联著名的“宇宙号”系列卫星。该系列卫星承担着空间科学探测、技术试验与航天技术验证等多重任务,作为冷战时期苏联航天发展的产物,它推动了苏联在航天领域的技术积累,为后续载人航天、深空探测等任务积累了宝贵的空间环境数据与工程经验。

基本信息
目录编号:
11302
目录名称:
COSMOS 1087
国际标识:
1979-024G
轨道中心:
EARTH
卫星名称:
COSMOS 1087
卫星全名:
--
卫星状态:
在轨 (已飞行17350 天)
发射日期:
1979-03-15 UTC
国别 :
俄罗斯(独联体) (CIS)
星等 :
--
该卫星已列入 空间交会检测服务 Space Conjunction Data Service (SCDS) ,当前飞行风险评估等级: 高风险
轨道信息
数据来源 国际轨道数据
星历时间: 2026-09-14T13:03:26+0800
3小时前
查看轨道信息
半长轴: 7872.558km
偏心率: 0.0036674
轨道倾角: 74.035°
近地点辐角 98.055°
升交点赤经 163.653°
平近点角 56.079°
近地点: 1465.549km
远地点: 1523.293km
周期: 115.860分钟
每日圈数: 12.428794
详细信息
使用方式:
暂无
2D轨道图
3D轨道图
轨道高度分析图
轨道倾角分析图
轨道综合分析图
查看轨道综合分析图
交会数据列表
事件ID 空间交会对象 最接近时刻(TCA) 交会距离 交会风险概率(CRP) 交会风险指数(CRI) 操作
CDM_260916-000101-064601-130223
2026-09-16T
00:01:22+0000
0.248 km
中距离
4.741959E-4 高风险 0.89
与全量物体交会距离演化趋势 订阅飞行安全评估服务
与全量物体交会风险概率演化趋势 订阅飞行安全评估服务